Regional Weather Roundup
Issued by NWS San Diego, CA

Home | Current Version | Previous Version | Text Only | Print | Product List | Glossary On
Versions: 1 2 3 4 5 6 7 8 9 10 11 12 13 14 15 16 17 18 19 20 21 22 23 24 25 26 27 28 29 30 31 32 33 34 35 36 37 38 39 40 41 42 43 44 45 46 47 48 49
000
ASUS46 KSGX 280211
RWRSGX

SAN DIEGO HOURLY WEATHER ROUNDUP
NATIONAL WEATHER SERVICE SAN DIEGO CA
700 PM PDT THU JUL 27 2017

NOTE: "FAIR" INDICATES FEW OR NO CLOUDS BELOW 12,000 FEET WITH NO
SIGNIFICANT WEATHER AND/OR OBSTRUCTIONS TO VISIBILITY.

CAZ042-043-060-061-PZZ750-775-280300-

GREATER SAN DIEGO AREA

CITY           SKY/WX    TMP DP  RH WIND       PRES   REMARKS
SAN DIEGO AP   MOCLDY    73  65  75 W9        29.91R
NATIONAL CITY    N/A     74  67  78 SW3       29.91S
CHULA VISTA      N/A     73  67  81 W2        29.82R
IMPERIAL BEACH MOCLDY    71  63  75 W8        29.91S
BROWN FIELD    PTCLDY    70  64  81 W7        29.91R
MIRAMAR MCAS   PTCLDY    75  64  68 W6        29.90S
MONTGOMERY FLD PTCLDY    73  65  75 NW8       29.91R
GILLESPIE FLD  CLEAR     79  64  61 W10       29.89R

$$

NORTH SAN DIEGO COUNTY

CITY           SKY/WX    TMP DP  RH WIND       PRES   REMARKS
CAMP PENDLETON PTCLDY    64  61  90 VRB5      29.88R
OCEANSIDE AP   PTCLDY    74  67  78 W8        29.88R
OCEANSIDE HBR    N/A     72  67  84 W3        29.91R
VISTA            N/A     75  67  77 CALM      29.85S
CARLSBAD       CLOUDY    72  67  84 VRB3      29.89R
DEL MAR          N/A     71  67  86 CALM      29.91R
LA JOLLA SCRIP   N/A     70  67  91 S3        29.89R
FALLBROOK        N/A     74  68  81 SW2       29.88R
ESCONDIDO        N/A     78  67  68 CALM      29.89R
SAN MARCOS       N/A     74  66  77 W8        29.90R
POWAY            N/A     76  66  70 CALM      29.89R

$$

EAST SAN DIEGO COUNTY

CITY           SKY/WX    TMP DP  RH WIND       PRES   REMARKS
RAMONA         CLEAR     80  65  59 W10       29.92R
SANTEE LAKES     N/A     76  66  70 SW3       29.87R
LA MESA          N/A     76  65  68 W8        29.81R
JAMUL            N/A     75  65  70 CALM      29.88R
DESCANSO N       N/A     80  57  46 W3        29.78R
CAMPO            N/A     82  54  37 SW14      29.93R

$$

ORANGE COUNTY AND THE LOS ANGELES BASIN

CITY           SKY/WX    TMP DP  RH WIND       PRES   REMARKS
JOHN WAYNE AP  CLEAR     74  63  68 SW6       29.87R
LAKE FOREST FR   N/A     80  62  52 W2        29.76R
HUNTINGTON BCH   N/A     70  66  87 W12       29.88S
LOS ALAMITOS   MOSUNNY   80  61  52 W6        29.86S
FULLERTON      SUNNY     81  60  48 W6        29.85S
LONG BEACH     SUNNY     76  61  59 W7        29.87R
L.A. AP        MOSUNNY   71  64  78 W15       29.87S
L.A. DOWNTOWN  SUNNY     75  62  64 W6        29.86S

$$

THE INLAND EMPIRE

CITY           SKY/WX    TMP DP  RH WIND       PRES   REMARKS
CORONA         CLEAR     84  63  49 W16G23    29.85R
CHINO          PTCLDY    86  58  38 SW13      29.87R
ONTARIO        PTCLDY    86  59  39 SW14      29.87R
RIVERSIDE AP   CLEAR     86  61  42 W15       29.86R
MORENO VALLEY    N/A     89  58  35 NW7       28.03R
MARCH ARB      CLEAR     88  55  32 NW14      29.90R
HORSETHIEF CYN   N/A     89  55  31 NE3       29.84R
PERRIS           N/A     88  57  34 N7        29.87S
HEMET EAST       N/A     91  51  25 W6        29.88R
FRENCH VALLEY  FAIR      81  64  57 SW12      29.91R
TEMECULA         N/A     82  65  57 SW7       29.93R

$$

SAN BERNARDINO AND RIVERSIDE COUNTY MOUNTAINS

CITY           SKY/WX    TMP DP  RH WIND       PRES   REMARKS
BIG BEAR AP    CLEAR     72  36  26 W9        30.26R
PINE COVE        N/A     73  58  58 CALM      29.83R

$$

SOUTHERN DESERT INCLUDING THE COACHELLA VALLEY

CITY           SKY/WX    TMP DP  RH WIND       PRES   REMARKS
PALM SPRINGS   CLEAR    107  55  18 NW20G25   29.71S HX 106
THOUSAND PALMS   N/A    107  57  19 NW14      29.65S HX 106
PALM DESERT      N/A    110  60  19 N6        29.27S HX 112
THERMAL        CLEAR    108  46  12 S5        29.63S HX 104
BLYTHE         MOCLDY   110  55  16 SW13      29.68S HX 109
IMPERIAL AP    CLEAR    108  57  18 W3        29.65S HX 108
EL CENTRO NAS  PTCLDY   109  46  12 E5        29.68R HX 105
YUMA AZ        CLEAR    108  54  16 S7        29.68F HX 106
MEXICALI       CLEAR    106  52  16 E7        29.68S HX 103

$$

UPPER DESERT

CITY           SKY/WX    TMP DP  RH WIND       PRES   REMARKS
VICTORVILLE AP PTCLDY    95  34  11 W15       29.93R
HESPERIA         N/A     87  42  20 SW6       29.89R
PALMDALE       SUNNY     92  49  22 SW16G38   29.93R
LANCASTER      SUNNY     92  49  22 SW21      29.92R
EDWARDS AFB    MOSUNNY   96  42  15 SW22G29   29.87R
DAGGETT        CLEAR    103  32   8 SW13      29.81S HX  96
29 PALMS N     PTCLDY   103  37  10 SW12      29.88S HX  97
NEEDLES        CLEAR    112  33   7 VRB7      29.72R HX 104

$$

REGIONAL REPORTS

CITY           SKY/WX    TMP DP  RH WIND       PRES   REMARKS
SANTA BARBARA  SUNNY     68  61  78 W6        29.86F
SANDBERG       SUNNY     82  49  31 NW14      30.12S
LAS VEGAS NV   PTCLDY   102  54  20 E8        29.82S HX 100
PHOENIX AZ     CLOUDY   103  60  24 E14       29.75R HX 104
TIJUANA        CLEAR     70  61  73 W5        29.93R
ENSENADA NW      N/A     69  32  25 NW8       29.87S

$$

OFFSHORE ISLANDS

CITY           SKY/WX    TMP DP  RH WIND       PRES   REMARKS
CATALINA ARPT  SUNNY     75  51  43 W13       29.93F
SAN NICOLAS IS SUNNY     66  60  81 W18       29.89F

$$

MARINE AND OFFSHORE BUOY REPORTS

STATION/POSITION SKY/WX   TEMP    WIND        PRES    VSBY  SWELL
                          AIR SEA DIR/SP/G                  HT/PER/DIR
                          (F)     (DEG/KT/KT) (MB)    (MI)  (FT/S/D)
TANNER BANKS               62 64  290/ 12/ 16 1013.1S         3/320/ 8
S CLEMENTE BASIN              71  290/ 12/ 16 1012.5R         2/250/ 9
SAN NICOLAS IS.               66                N/A           2/160/11
SO. S. ROSA ISLA           61 65  290/ 17/ 21 1012.5F         3/170/14
W. S. BARBARA CH           60 62  300/ 17/ 23 1012.0F         2/290/ 8
M. S. BARBARA CH           62 66  250/ 16/ 19 1012.4F         2/260/ 7
S. MONICA BASIN               72  260/ 14/ 16 1011.5S         2/210/ 9
S PEDRO CHANNEL               71                N/A
CMP PENDLETON NS              75                N/A           2/220/18
OCEANSIDE OFFSHR              76                N/A           2/190/18
TORREY PINES OTR              75                N/A           2/190/18
SAN DIEGO BAY                 78              1012.8R
POINT LOMA SOUTH              72                N/A           2/190/18

$$





USA.gov is the U.S. government's official web portal to all federal, state and local government web resources and services.